Location: Bastogne Gables
(35.1554°N, 78.9900°W)
Time: 14:37:03
(UTC+00:00)

AQUARIUS - Pass Details

Date: 04 March 2021
Orbit: 650 x 653 km, 98.0° (Epoch: 13 April)

Event Time Altitude Azimuth Distance (km) Brightness Sun altitude
Rises 10:34:44 0° 32° (NNE) 2,975 8.1 -14.4°
Reaches altitude 10° 10:37:39 10° 52° (NE) 2,058 7.6 -13.8°
Maximum altitude 10:40:37 17° 94° (E) 1,619 7.4 -13.2°
Drops below altitude 10° 10:43:35 10° 136° (SE) 2,047 7.4 -12.6°
Sets 10:46:27 0° 156° (SSE) 2,952 7.9 -12.0°
